SCP
3 1 1 1 1 1 1 1 1 1 1 1 0 0 0 0 0 0 0 0 0 0 0 0 0 0 0 0 0 0 0 0 0 0 0 0 0 0 0 0 0 0 0
-0 1 1 1 1 1 1 1 1 1 0 0 0 0 0 0 0 0 0 0 0 0 0 0 0 0 0 0 0 0 0 0 0 0 0 0 0 0 0 0 0 0 0
0 0 1 1 1 1 0 0 0 0 0 0 0 0 0 0 0 0 0 0 0 0 0 0 0 0 0 0 0 0 0 0 0 0 0 0 0 0 0 0 0 0 0
0 0 0 0 0 0 0 0 0 0 0 0 0 0 0 0 0 0 0 0 0 0 0 0 0 0 0 0 0 0 0 0 0 0 0 0 0 0 0 0 0 0 0
1 0 0 -0 0 0 0 0 0 0 0 0 0 0 0 0 0 0 0 0 0 0 0 0 0 0 0 0 0 0 0 0 0 0 0 0 0 0 0 0 0 0 0
1 0 0 -0 0 0 0 0 0 0 0 0 0 0 0 0 0 0 0 0 0 0 0 0 0 0 0 0 0 0 0 0 0 0 0 0 0 0 0 0 0 0 0
0 -0 0 -0 0 0 0 0 0 0 0 0 0 0 0 0 0 0 0 0 0 0 0 0 0 0 0 0 0 0 0 0 0 0 0 0 0 0 0 0 0 0 0
-0 -0 -0 -0 0 0 0 0 0 0 0 0 0 0 0 0 0 0 0 0 0 0 0 0 0 0 0 0 0 0 0 0 0 0 0 0 0 0 0 0 0 -0 0
0 0 -0 0 0 0 -0 0 0 0 0 0 0 0 0 0 0 0 0 0 0 0 0 0 0 0 0 0 0 0 0 0 0 0 0 0 0 0 0 0 0 0 0
0 0 0 -0 0 0 0 0 0 0 0 0 0 0 0 0 0 0 0 0 0 0 0 0 0 0 0 0 0 0 0 0 0 0 0 0 0 0 0 0 0 0 0
0 0 -0 0 0 0 0 0 0 0 0 0 0 0 0 0 0 0 0 0 0 0 0 0 0 0 0 0 0 0 0 0 0 0 0 0 0 0 0 0 0 0 0
0 -0 0 0 0 0 0 0 0 0 0 0 0 0 0 0 0 0 0 0 0 0 0 0 0 0 0 0 0 0 0 0 0 0 0 0 0 0 0 0 0 0 0
0 0 0 0 0 0 0 -0 0 0 0 0 0 0 0 0 0 0 0 0 0 0 0 0 0 0 0 0 0 0 0 0 0 0 0 0 0 0 0 0 0 0 0
0 0 0 -0 0 0 0 0 0 0 0 0 0 0 0 0 0 0 0 0 0 0 0 0 0 0 0 0 0 0 0 0 0 0 0 0 0 0 0 0 0 0 0
0 0 0 0 0 0 0 0 0 0 0 0 0 0 0 0 0 0 0 0 0 0 0 0 0 0 0 0 0 0 0 0 0 0 0 0 0 0 0 0 0 0 0
0 0 -0 0 -0 0 0 -0 0 0 0 0 0 0 0 0 0 0 0 0 0 0 0 0 0 0 0 0 0 0 0 0 0 0 0 0 0 0 0 0 0 0 0
-0 0 -0 0 0 -0 0 -0 0 0 0 0 0 0 0 0 0 0 0 0 0 0 0 0 0 0 0 0 0 0 0 0 0 0 0 0 0 0 0 0 0 0 0
-0 0 0 0 0 0 0 0 0 0 0 0 0 0 0 0 0 0 0 0 0 0 0 0 0 0 0 0 0 0 0 0 0 0 0 0 0 0 0 0 0 0 0
0 0 0 0 0 0 0 0 0 0 0 0 0 0 0 0 0 0 0 0 0 0 0 0 0 0 0 0 0 0 0 0 0 0 0 0 0 0 0 0 0 0 0
0 0 0 0 0 0 0 0 0 0 0 0 0 0 0 0 0 0 0 0 0 0 0 0 0 0 0 0 0 0 0 0 0 0 0 0 0 0 0 0 0 0 0
0 0 0 0 0 0 0 0 0 0 0 0 0 0 0 0 0 0 0 0 0 0 0 0 0 0 0 0 0 0 0 0 0 0 0 0 0 0 0 0 0 0 0
0 0 0 0 0 0 0 0 0 0 0 0 0 0 0 0 0 0 0 0 0 0 0 0 0 0 -0 0 0 0 0 0 0 0 0 0 0 0 0 0 0 0 0
0 0 0 0 0 0 0 0 0 0 0 0 0 0 0 0 0 0 0 0 0 0 0 0 0 0 0 -0 0 0 0 0 0 0 0 0 0 0 0 0 0 0 0
0 0 0 0 0 0 0 0 0 0 0 0 0 0 0 0 0 0 0 0 0 0 0 0 0 0 0 0 0 0 0 0 0 0 0 0 0 0 0 0 0 0 0
0 0 0 0 0 0 0 0 0 0 0 0 0 0 0 0 0 0 0 0 0 0 0 0 0 0 0 0 0 0 0 0 0 0 0 0 0 0 0 0 0 0 0
0 0 0 0 0 0 0 0 0 0 0 0 0 0 0 0 0 0 0 0 0 0 0 0 0 0 0 0 0 0 0 0 0 0 0 0 0 0 0 0 0 0 0
Wind_Speed_500mb
55 50 41 42 37 35 31 29 28 28 20 24 26 24 21 17 14 12 12 8 5 11 10 15 19 23 27 34 30 34 40 38 28 30 38 41 19 27 39 43 35 34 28
63 45 50 42 37 31 27 26 25 24 22 22 23 19 20 14 10 13 8 15 12 13 18 25 25 30 22 21 25 32 33 32 27 34 32 30 30 58 42 44 37 34 34
30 45 42 40 35 26 26 21 29 28 25 21 21 24 21 18 16 13 21 20 14 17 25 25 18 22 20 17 20 26 30 29 25 22 27 21 22 61 48 47 43 42 47
56 53 51 48 33 32 30 28 31 30 26 22 19 18 16 15 19 13 15 4 15 17 22 20 20 29 25 18 17 20 26 21 27 29 28 22 27 38 37 50 51 50 43
54 36 31 40 34 41 38 38 31 25 23 22 20 22 16 19 17 13 5 6 3 13 17 21 23 34 29 16 17 17 19 20 27 34 32 25 26 29 38 51 65 44 43
57 36 35 47 35 34 36 33 27 27 22 18 17 19 21 26 29 23 12 11 2 15 18 18 26 36 26 19 15 18 18 18 31 32 30 29 29 29 39 51 52 55 57
49 32 54 47 36 37 39 33 28 29 24 16 18 17 14 14 12 13 8 10 8 5 10 21 33 32 23 19 17 17 17 21 30 29 34 23 24 29 33 42 49 53 51
50 66 65 48 40 41 42 38 37 34 22 17 12 17 14 6 3 8 12 16 15 9 16 27 32 30 22 20 20 19 20 23 28 28 33 33 27 23 28 35 42 51 52
24 51 60 50 48 39 39 41 39 29 22 16 11 9 7 1 15 13 14 19 22 23 27 30 22 25 24 21 19 22 26 26 26 30 33 36 40 31 28 32 28 37 47
28 55 39 55 46 39 45 44 29 19 24 13 11 14 7 9 16 25 25 12 17 18 18 17 23 28 26 24 23 26 30 26 27 28 32 35 40 36 32 29 23 29 42
23 43 23 54 57 57 49 26 13 23 25 17 19 16 10 7 15 22 21 17 17 20 21 20 23 26 32 27 26 32 32 30 28 28 34 40 40 39 35 30 31 31 35
62 35 25 39 39 32 32 25 21 20 14 23 24 18 20 17 17 28 20 13 19 21 21 22 24 29 34 32 31 36 33 32 34 40 43 46 36 36 36 36 33 36 36
33 41 46 26 36 33 33 31 23 15 15 19 16 19 14 16 25 19 17 17 19 22 21 20 27 34 36 37 39 40 34 30 42 47 56 53 41 40 38 31 34 36 32
50 59 47 49 43 43 32 28 22 19 19 14 14 10 12 22 16 15 19 23 25 26 25 25 27 33 40 42 44 43 44 42 42 56 55 52 47 32 32 31 36 37 35
44 39 34 30 14 13 17 22 23 20 20 17 11 14 8 13 19 24 28 33 37 38 36 36 36 38 41 44 46 46 47 50 54 54 53 54 42 25 30 36 35 33 36
32 37 19 19 11 10 19 17 24 19 11 15 3 6 13 17 23 24 27 29 33 36 36 44 49 50 50 50 49 47 50 52 56 57 55 45 25 23 30 33 35 37 39
31 20 3 16 6 4 10 11 4 6 9 9 8 15 12 14 19 27 30 32 34 37 43 48 46 47 49 50 54 50 50 52 55 55 53 35 25 27 34 35 33 33 35
25 21 4 16 11 15 16 12 14 13 12 17 20 17 21 22 24 23 30 36 41 43 43 43 42 43 43 46 44 43 44 47 49 50 42 33 33 30 26 25 24 29 36
17 18 18 34 37 32 23 20 16 14 17 17 15 19 26 33 37 41 43 42 42 42 40 45 49 49 49 50 49 45 45 42 37 41 33 30 35 37 29 30 33 38 37
50 53 46 36 29 20 19 21 23 22 18 17 20 24 30 34 30 31 38 41 41 38 42 42 37 36 36 41 41 40 37 43 40 35 30 28 22 32 35 40 36 38 33
33 30 27 23 15 19 23 22 23 21 19 21 26 28 29 28 29 33 38 40 35 30 29 28 35 39 41 40 40 33 29 31 40 42 37 37 40 30 27 25 32 35 32
25 23 21 18 15 18 16 12 11 12 17 24 26 25 23 27 33 36 35 25 20 16 15 15 17 39 49 51 52 53 50 35 36 46 45 41 42 41 35 36 37 38 40
17 13 14 14 8 7 6 9 13 18 22 27 25 20 23 30 32 25 20 24 29 32 33 33 40 51 46 53 49 49 50 49 48 41 42 49 46 45 47 46 47 43 42
23 16 9 4 2 7 11 15 21 25 28 28 23 21 29 33 18 20 23 31 31 30 36 40 39 37 36 46 54 54 53 47 45 40 40 41 45 42 45 42 39 28 35
24 23 15 11 6 5 14 21 26 29 31 29 24 21 28 22 25 24 21 30 29 28 35 36 31 29 33 44 46 56 53 47 47 39 36 30 28 31 32 38 32 24 28
28 21 11 8 2 6 12 21 28 32 33 30 26 25 22 29 30 33 25 28 26 27 32 24 30 30 35 37 40 60 42 45 34 35 30 39 46 47 35 34 33 33 27
Wind_Direction_500mb
181 160 169 184 188 193 201 209 212 211 210 178 182 182 197 206 204 198 221 196 123 138 202 254 257 275 296 299 306 315 320 327 338 338 332 333 323 341 358 356 351 343 339
354 160 168 179 200 204 195 188 196 187 159 155 151 162 160 167 165 161 172 139 151 211 253 271 284 297 309 298 310 321 330 344 3 346 344 347 349 343 358 8 5 352 341
248 216 171 178 186 187 173 174 162 155 160 153 163 165 169 170 168 164 159 169 221 291 295 306 309 345 326 309 323 329 347 346 358 6 360 347 338 336 347 8 7 358 349
175 200 173 186 186 176 165 172 171 162 156 160 162 173 168 170 165 155 161 224 277 304 309 332 336 343 331 315 329 350 350 2 1 357 351 347 343 336 330 351 7 5 6
165 177 200 196 165 167 170 186 185 165 157 168 163 173 179 161 169 168 205 227 296 282 289 312 328 335 326 322 328 353 3 6 352 348 348 355 352 348 335 332 350 6 13
171 178 216 200 164 169 180 186 179 161 151 157 158 162 157 159 149 143 147 116 252 233 264 301 320 327 319 319 323 342 346 352 351 353 348 342 345 338 334 336 337 335 345
164 237 211 175 161 178 181 185 169 143 142 143 153 162 151 150 159 193 192 228 258 211 260 307 316 319 320 324 326 327 340 324 328 340 344 337 348 338 332 329 332 333 334
187 209 186 174 166 175 172 164 145 138 147 143 118 131 139 150 241 277 279 260 249 271 300 301 305 316 321 325 325 320 323 317 320 323 332 328 324 333 325 325 323 325 324
219 322 175 174 172 173 167 150 140 144 149 150 104 131 52 284 283 292 315 226 232 251 279 286 309 323 323 324 326 318 321 323 310 313 315 330 331 315 304 308 306 315 315
49 330 191 161 160 165 153 149 143 135 148 190 159 182 199 289 339 333 330 280 275 288 313 320 320 329 331 326 319 311 316 321 319 323 323 320 319 322 313 307 294 302 301
100 26 59 134 140 135 148 147 168 158 165 190 184 183 187 225 299 323 320 278 281 297 307 313 310 310 326 322 304 302 315 317 323 308 308 311 308 311 310 297 300 288 291
124 157 135 127 133 152 169 171 177 179 177 190 202 207 220 250 301 323 328 294 272 285 290 295 297 298 308 313 309 307 308 309 308 300 314 319 297 303 302 305 301 293 290
144 141 143 151 167 181 156 161 166 158 141 178 205 196 216 278 317 324 335 323 305 294 296 291 289 294 301 301 307 312 311 299 294 298 308 314 306 286 286 303 291 299 303
142 141 143 125 147 181 164 164 147 157 171 192 185 215 283 306 305 324 330 331 331 325 318 305 295 296 299 300 301 307 302 296 299 306 306 308 310 278 283 287 294 303 298
142 140 143 154 135 175 180 163 162 181 192 197 238 282 314 331 324 321 319 323 320 322 319 313 308 304 300 299 297 299 303 303 305 309 313 310 300 263 280 286 298 300 300
138 145 166 151 99 230 184 264 190 179 217 290 331 333 315 302 303 302 304 314 319 309 304 305 306 301 296 297 292 288 291 296 302 309 315 315 289 266 282 291 282 282 290
177 210 167 172 319 103 162 174 165 51 49 14 318 275 253 273 257 284 283 285 287 289 291 293 301 300 298 294 291 292 291 290 298 309 316 307 291 290 295 297 284 288 298
213 212 126 128 150 138 156 150 170 181 196 213 205 207 233 252 260 271 278 284 290 298 304 303 304 306 301 294 290 284 283 287 290 307 309 305 311 304 298 299 306 311 307
168 172 158 153 161 167 168 180 186 198 205 229 252 262 262 269 288 292 290 296 302 303 303 308 305 304 301 298 296 293 288 284 285 297 307 309 307 308 292 287 301 308 314
145 157 165 174 185 193 215 227 229 239 253 274 290 293 296 300 313 304 300 307 310 314 311 312 305 305 305 303 302 299 293 279 267 270 277 286 293 290 294 291 286 297 314
165 176 186 198 207 235 244 238 243 255 274 281 287 295 301 302 294 294 303 312 322 322 327 342 338 322 316 318 318 314 307 283 260 261 264 272 276 277 283 280 283 294 306
183 198 200 207 199 214 232 240 269 296 304 301 305 307 303 298 302 312 319 335 339 352 329 313 336 345 325 321 328 321 319 306 296 267 263 265 273 275 269 272 278 280 290
168 195 201 188 192 199 253 296 309 322 320 319 327 324 312 308 319 331 353 331 323 321 328 325 321 325 328 326 334 337 337 325 307 295 289 277 274 276 279 281 286 282 280
138 133 141 134 53 325 333 333 328 335 336 339 339 334 319 328 345 359 351 338 338 333 330 334 336 341 346 348 349 352 347 340 332 325 303 295 283 289 276 276 280 287 289
160 160 140 85 84 349 333 327 329 337 339 338 333 325 336 356 344 338 335 341 330 332 333 333 333 333 339 343 340 348 346 342 339 343 354 336 315 293 290 267 281 277 293
154 145 136 166 172 340 324 313 319 330 338 340 349 2 4 351 331 328 333 332 331 339 334 344 344 338 326 326 332 349 340 341 331 336 354 7 7 9 335 315 324 302 286
Wind_Speed_850mb
55 50 41 42 37 35 31 29 28 28 20 24 26 24 21 17 14 12 12 8 5 11 10 15 19 23 27 34 30 34 40 38 28 30 38 41 19 27 39 43 35 34 28
63 45 50 42 37 31 27 26 25 24 22 22 23 19 20 14 10 13 8 15 12 13 18 25 25 30 22 21 25 32 33 32 27 34 32 30 30 58 42 44 37 34 34
30 45 42 40 35 26 26 21 29 28 25 21 21 24 21 18 16 13 21 20 14 17 25 25 18 22 20 17 20 26 30 29 25 22 27 21 22 61 48 47 43 42 47
56 53 51 48 33 32 30 28 31 30 26 22 19 18 16 15 19 13 15 4 15 17 22 20 20 29 25 18 17 20 26 21 27 29 28 22 27 38 37 50 51 50 43
54 36 31 40 34 41 38 38 31 25 23 22 20 22 16 19 17 13 5 6 3 13 17 21 23 34 29 16 17 17 19 20 27 34 32 25 26 29 38 51 65 44 43
57 36 35 47 35 34 36 33 27 27 22 18 17 19 21 26 29 23 12 11 2 15 18 18 26 36 26 19 15 18 18 18 31 32 30 29 29 29 39 51 52 55 57
49 32 54 47 36 37 39 33 28 29 24 16 18 17 14 14 12 13 8 10 8 5 10 21 33 32 23 19 17 17 17 21 30 29 34 23 24 29 33 42 49 53 51
50 66 65 48 40 41 42 38 37 34 22 17 12 17 14 6 3 8 12 16 15 9 16 27 32 30 22 20 20 19 20 23 28 28 33 33 27 23 28 35 42 51 52
24 51 60 50 48 39 39 41 39 29 22 16 11 9 7 1 15 13 14 19 22 23 27 30 22 25 24 21 19 22 26 26 26 30 33 36 40 31 28 32 28 37 47
28 55 39 55 46 39 45 44 29 19 24 13 11 14 7 9 16 25 25 12 17 18 18 17 23 28 26 24 23 26 30 26 27 28 32 35 40 36 32 29 23 29 42
23 43 23 54 57 57 49 26 13 23 25 17 19 16 10 7 15 22 21 17 17 20 21 20 23 26 32 27 26 32 32 30 28 28 34 40 40 39 35 30 31 31 35
62 35 25 39 39 32 32 25 21 20 14 23 24 18 20 17 17 28 20 13 19 21 21 22 24 29 34 32 31 36 33 32 34 40 43 46 36 36 36 36 33 36 36
33 41 46 26 36 33 33 31 23 15 15 19 16 19 14 16 25 19 17 17 19 22 21 20 27 34 36 37 39 40 34 30 42 47 56 53 41 40 38 31 34 36 32
50 59 47 49 43 43 32 28 22 19 19 14 14 10 12 22 16 15 19 23 25 26 25 25 27 33 40 42 44 43 44 42 42 56 55 52 47 32 32 31 36 37 35
44 39 34 30 14 13 17 22 23 20 20 17 11 14 8 13 19 24 28 33 37 38 36 36 36 38 41 44 46 46 47 50 54 54 53 54 42 25 30 36 35 33 36
32 37 19 19 11 10 19 17 24 19 11 15 3 6 13 17 23 24 27 29 33 36 36 44 49 50 50 50 49 47 50 52 56 57 55 45 25 23 30 33 35 37 39
31 20 3 16 6 4 10 11 4 6 9 9 8 15 12 14 19 27 30 32 34 37 43 48 46 47 49 50 54 50 50 52 55 55 53 35 25 27 34 35 33 33 35
25 21 4 16 11 15 16 12 14 13 12 17 20 17 21 22 24 23 30 36 41 43 43 43 42 43 43 46 44 43 44 47 49 50 42 33 33 30 26 25 24 29 36
17 18 18 34 37 32 23 20 16 14 17 17 15 19 26 33 37 41 43 42 42 42 40 45 49 49 49 50 49 45 45 42 37 41 33 30 35 37 29 30 33 38 37
50 53 46 36 29 20 19 21 23 22 18 17 20 24 30 34 30 31 38 41 41 38 42 42 37 36 36 41 41 40 37 43 40 35 30 28 22 32 35 40 36 38 33
33 30 27 23 15 19 23 22 23 21 19 21 26 28 29 28 29 33 38 40 35 30 29 28 35 39 41 40 40 33 29 31 40 42 37 37 40 30 27 25 32 35 32
25 23 21 18 15 18 16 12 11 12 17 24 26 25 23 27 33 36 35 25 20 16 15 15 17 39 49 51 52 53 50 35 36 46 45 41 42 41 35 36 37 38 40
17 13 14 14 8 7 6 9 13 18 22 27 25 20 23 30 32 25 20 24 29 32 33 33 40 51 46 53 49 49 50 49 48 41 42 49 46 45 47 46 47 43 42
23 16 9 4 2 7 11 15 21 25 28 28 23 21 29 33 18 20 23 31 31 30 36 40 39 37 36 46 54 54 53 47 45 40 40 41 45 42 45 42 39 28 35
24 23 15 11 6 5 14 21 26 29 31 29 24 21 28 22 25 24 21 30 29 28 35 36 31 29 33 44 46 56 53 47 47 39 36 30 28 31 32 38 32 24 28
28 21 11 8 2 6 12 21 28 32 33 30 26 25 22 29 30 33 25 28 26 27 32 24 30 30 35 37 40 60 42 45 34 35 30 39 46 47 35 34 33 33 27
Wind_Direction_850mb
181 160 169 184 188 193 201 209 212 211 210 178 182 182 197 206 204 198 221 196 123 138 202 254 257 275 296 299 306 315 320 327 338 338 332 333 323 341 358 356 351 343 339
354 160 168 179 200 204 195 188 196 187 159 155 151 162 160 167 165 161 172 139 151 211 253 271 284 297 309 298 310 321 330 344 3 346 344 347 349 343 358 8 5 352 341
248 216 171 178 186 187 173 174 162 155 160 153 163 165 169 170 168 164 159 169 221 291 295 306 309 345 326 309 323 329 347 346 358 6 360 347 338 336 347 8 7 358 349
175 200 173 186 186 176 165 172 171 162 156 160 162 173 168 170 165 155 161 224 277 304 309 332 336 343 331 315 329 350 350 2 1 357 351 347 343 336 330 351 7 5 6
165 177 200 196 165 167 170 186 185 165 157 168 163 173 179 161 169 168 205 227 296 282 289 312 328 335 326 322 328 353 3 6 352 348 348 355 352 348 335 332 350 6 13
171 178 216 200 164 169 180 186 179 161 151 157 158 162 157 159 149 143 147 116 252 233 264 301 320 327 319 319 323 342 346 352 351 353 348 342 345 338 334 336 337 335 345
164 237 211 175 161 178 181 185 169 143 142 143 153 162 151 150 159 193 192 228 258 211 260 307 316 319 320 324 326 327 340 324 328 340 344 337 348 338 332 329 332 333 334
187 209 186 174 166 175 172 164 145 138 147 143 118 131 139 150 241 277 279 260 249 271 300 301 305 316 321 325 325 320 323 317 320 323 332 328 324 333 325 325 323 325 324
219 322 175 174 172 173 167 150 140 144 149 150 104 131 52 284 283 292 315 226 232 251 279 286 309 323 323 324 326 318 321 323 310 313 315 330 331 315 304 308 306 315 315
49 330 191 161 160 165 153 149 143 135 148 190 159 182 199 289 339 333 330 280 275 288 313 320 320 329 331 326 319 311 316 321 319 323 323 320 319 322 313 307 294 302 301
100 26 59 134 140 135 148 147 168 158 165 190 184 183 187 225 299 323 320 278 281 297 307 313 310 310 326 322 304 302 315 317 323 308 308 311 308 311 310 297 300 288 291
124 157 135 127 133 152 169 171 177 179 177 190 202 207 220 250 301 323 328 294 272 285 290 295 297 298 308 313 309 307 308 309 308 300 314 319 297 303 302 305 301 293 290
144 141 143 151 167 181 156 161 166 158 141 178 205 196 216 278 317 324 335 323 305 294 296 291 289 294 301 301 307 312 311 299 294 298 308 314 306 286 286 303 291 299 303
142 141 143 125 147 181 164 164 147 157 171 192 185 215 283 306 305 324 330 331 331 325 318 305 295 296 299 300 301 307 302 296 299 306 306 308 310 278 283 287 294 303 298
142 140 143 154 135 175 180 163 162 181 192 197 238 282 314 331 324 321 319 323 320 322 319 313 308 304 300 299 297 299 303 303 305 309 313 310 300 263 280 286 298 300 300
138 145 166 151 99 230 184 264 190 179 217 290 331 333 315 302 303 302 304 314 319 309 304 305 306 301 296 297 292 288 291 296 302 309 315 315 289 266 282 291 282 282 290
177 210 167 172 319 103 162 174 165 51 49 14 318 275 253 273 257 284 283 285 287 289 291 293 301 300 298 294 291 292 291 290 298 309 316 307 291 290 295 297 284 288 298
213 212 126 128 150 138 156 150 170 181 196 213 205 207 233 252 260 271 278 284 290 298 304 303 304 306 301 294 290 284 283 287 290 307 309 305 311 304 298 299 306 311 307
168 172 158 153 161 167 168 180 186 198 205 229 252 262 262 269 288 292 290 296 302 303 303 308 305 304 301 298 296 293 288 284 285 297 307 309 307 308 292 287 301 308 314
145 157 165 174 185 193 215 227 229 239 253 274 290 293 296 300 313 304 300 307 310 314 311 312 305 305 305 303 302 299 293 279 267 270 277 286 293 290 294 291 286 297 314
165 176 186 198 207 235 244 238 243 255 274 281 287 295 301 302 294 294 303 312 322 322 327 342 338 322 316 318 318 314 307 283 260 261 264 272 276 277 283 280 283 294 306
183 198 200 207 199 214 232 240 269 296 304 301 305 307 303 298 302 312 319 335 339 352 329 313 336 345 325 321 328 321 319 306 296 267 263 265 273 275 269 272 278 280 290
168 195 201 188 192 199 253 296 309 322 320 319 327 324 312 308 319 331 353 331 323 321 328 325 321 325 328 326 334 337 337 325 307 295 289 277 274 276 279 281 286 282 280
138 133 141 134 53 325 333 333 328 335 336 339 339 334 319 328 345 359 351 338 338 333 330 334 336 341 346 348 349 352 347 340 332 325 303 295 283 289 276 276 280 287 289
160 160 140 85 84 349 333 327 329 337 339 338 333 325 336 356 344 338 335 341 330 332 333 333 333 333 339 343 340 348 346 342 339 343 354 336 315 293 290 267 281 277 293
154 145 136 166 172 340 324 313 319 330 338 340 349 2 4 351 331 328 333 332 331 339 334 344 344 338 326 326 332 349 340 341 331 336 354 7 7 9 335 315 324 302 286